owner,sensor,date,latitude,longitude,vertical_datum,direction_of_sea_water_velocity,sea_water_speed,upward_sea_water_velocity,qcFlag 
ADCP,ioos:station:wmo:42910:1,2013-09-03T16:57:00Z,27.8470,-90.7190,63.1,100.0,13.3,-99999.0,'1111122,1111122,1199999999' 
ADCP,ioos:station:wmo:42910:1,2013-09-03T17:17:00Z,27.8470,-90.7190,63.2,98.0,11.9,-99999.0,'1111122,1111122,1199999999' 
ADCP,ioos:station:wmo:42910:1,2013-09-03T17:57:00Z,27.8470,-90.7190,63.2,100.0,14.7,-99999.0,'1111122,1111122,1199999999' 
ADCP,ioos:station:wmo:42910:1,2013-09-03T18:37:00Z,27.8470,-90.7190,63.2,99.0,19.1,-99999.0,'1111122,1111122,1199999999' 
ADCP,ioos:station:wmo:42910:1,2013-09-03T19:07:00Z,27.8470,-90.7190,63.2,99.0,18.4,-99999.0,'1111122,1111122,1199999999' 
ADCP,ioos:station:wmo:42910:1,2013-09-03T19:37:00Z,27.8470,-90.7190,63.2,99.0,22.9,-99999.0,'1111122,1111122,1199999999' 
ADCP,ioos:station:wmo:42910:1,2013-09-03T20:07:00Z,27.8470,-90.7190,63.2,100.0,23.9,-99999.0,'1111122,1111122,1199999999' 
ADCP,ioos:station:wmo:42910:1,2013-09-03T20:37:00Z,27.8470,-90.7190,63.2,99.0,26.4,-99999.0,'1111122,1111122,1199999999' 
ADCP,ioos:station:wmo:42910:1,2013-09-03T21:07:00Z,27.8470,-90.7190,63.2,100.0,23.8,-99999.0,'1111122,1111122,1199999999' 
ADCP,ioos:station:wmo:42910:1,2013-09-03T21:17:00Z,27.8470,-90.7190,63.2,100.0,24.2,-99999.0,'1111122,1111122,1199999999' 
ADCP,ioos:station:wmo:42910:1,2013-09-03T21:57:00Z,27.8470,-90.7190,63.2,99.0,27.5,-99999.0,'1111122,1111122,1199999999' 
ADCP,ioos:station:wmo:42910:1,2013-09-03T22:37:00Z,27.8470,-90.7190,63.2,99.0,28.8,-99999.0,'1111122,1111122,1199999999' 
ADCP,ioos:station:wmo:42910:1,2013-09-03T22:57:00Z,27.8470,-90.7190,63.2,99.0,29.1,-99999.0,'1111122,1111122,1199999999' 
ADCP,ioos:station:wmo:42910:1,2013-09-03T23:37:00Z,27.8470,-90.7190,63.2,99.0,35.2,-99999.0,'1111122,1111122,1199999999' 
ADCP,ioos:station:wmo:42910:1,2013-09-04T00:37:00Z,27.8470,-90.7190,63.2,100.0,31.5,-99999.0,'1111122,1111122,1199999999' 
ADCP,ioos:station:wmo:42910:1,2013-09-04T01:07:00Z,27.8470,-90.7190,63.2,99.0,29.1,-99999.0,'1111122,1111122,1199999999' 
ADCP,ioos:station:wmo:42910:1,2013-09-04T01:37:00Z,27.8470,-90.7190,63.2,99.0,27.7,-99999.0,'1111122,1111122,1199999999' 
ADCP,ioos:station:wmo:42910:1,2013-09-04T01:57:00Z,27.8470,-90.7190,63.2,101.0,26.5,-99999.0,'1111122,1111122,1199999999' 
ADCP,ioos:station:wmo:42910:1,2013-09-04T02:37:00Z,27.8470,-90.7190,63.2,99.0,24.4,-99999.0,'1111122,1111122,1199999999' 
ADCP,ioos:station:wmo:42910:1,2013-09-04T03:07:00Z,27.8470,-90.7190,63.2,99.0,26.2,-99999.0,'1111122,1111122,1199999999' 
ADCP,ioos:station:wmo:42910:1,2013-09-04T04:07:00Z,27.8470,-90.7190,63.2,99.0,24.7,-99999.0,'1111122,1111122,1199999999' 
ADCP,ioos:station:wmo:42910:1,2013-09-04T04:37:00Z,27.8470,-90.7190,63.2,100.0,24.1,-99999.0,'1111122,1111122,1199999999' 
ADCP,ioos:station:wmo:42910:1,2013-09-04T05:07:00Z,27.8470,-90.7190,63.2,100.0,21.7,-99999.0,'1111122,1111122,1199999999' 
ADCP,ioos:station:wmo:42910:1,2013-09-04T05:37:00Z,27.8470,-90.7190,63.2,98.0,19.7,-99999.0,'1111122,1111122,1199999999' 
ADCP,ioos:station:wmo:42910:1,2013-09-04T06:07:00Z,27.8470,-90.7190,63.2,98.0,17.4,-99999.0,'1111122,1111122,1199999999' 
ADCP,ioos:station:wmo:42910:1,2013-09-04T06:27:00Z,27.8470,-90.7190,63.2,100.0,15.8,-99999.0,'1111122,1111122,1199999999' 
ADCP,ioos:station:wmo:42910:1,2013-09-04T06:47:00Z,27.8470,-90.7190,63.1,99.0,16.5,-99999.0,'1111122,1111122,1199999999' 
ADCP,ioos:station:wmo:42910:1,2013-09-04T07:37:00Z,27.8470,-90.7190,63.1,103.0,7.6,-99999.0,'1111122,1111122,1199999999' 
ADCP,ioos:station:wmo:42910:1,2013-09-04T08:07:00Z,27.8470,-90.7190,63.1,102.0,6.8,-99999.0,'1111122,1111122,1199999999' 
ADCP,ioos:station:wmo:42910:1,2013-09-04T09:07:00Z,27.8470,-90.7190,63.1,97.0,2.3,-99999.0,'1111122,1111122,1199999999' 
ADCP,ioos:station:wmo:42910:1,2013-09-04T09:37:00Z,27.8470,-90.7190,63.1,90.0,1.2,-99999.0,'1111122,1111122,1199999999' 
ADCP,ioos:station:wmo:42910:1,2013-09-04T10:07:00Z,27.8470,-90.7190,63.1,98.0,10.7,-99999.0,'1111122,1111122,1199999999' 
ADCP,ioos:station:wmo:42910:1,2013-09-04T10:37:00Z,27.8470,-90.7190,63.1,315.0,0.4,-99999.0,'1111122,1111122,1199999999' 
ADCP,ioos:station:wmo:42910:1,2013-09-04T11:07:00Z,27.8470,-90.7190,63.1,97.0,5.4,-99999.0,'1111122,1111122,1199999999' 
ADCP,ioos:station:wmo:42910:1,2013-09-04T11:57:00Z,27.8470,-90.7190,63.1,101.0,4.3,-99999.0,'1111122,1111122,1199999999' 
ADCP,ioos:station:wmo:42910:1,2013-09-04T12:27:00Z,27.8470,-90.7190,63.1,98.0,2.2,-99999.0,'1111122,1111122,1199999999' 
ADCP,ioos:station:wmo:42910:1,2013-09-04T13:07:00Z,27.8470,-90.7190,63.1,87.0,2.2,-99999.0,'1111122,1111122,1199999999' 
ADCP,ioos:station:wmo:42910:1,2013-09-04T13:47:00Z,27.8470,-90.7190,63.1,81.0,1.2,-99999.0,'1111122,1111122,1199999999' 
ADCP,ioos:station:wmo:42910:1,2013-09-04T14:07:00Z,27.8470,-90.7190,63.1,97.0,3.1,-99999.0,'1111122,1111122,1199999999' 
ADCP,ioos:station:wmo:42910:1,2013-09-04T14:47:00Z,27.8470,-90.7190,63.1,97.0,2.4,-99999.0,'1111122,1111122,1199999999' 
ADCP,ioos:station:wmo:42910:1,2013-09-04T15:17:00Z,27.8470,-90.7190,63.1,90.0,1.7,-99999.0,'1111122,1111122,1199999999' 
ADCP,ioos:station:wmo:42910:1,2013-09-04T15:47:00Z,27.8470,-90.7190,63.1,95.0,6.7,-99999.0,'1111122,1111122,1199999999' 
ADCP,ioos:station:wmo:42910:1,2013-09-04T16:07:00Z,27.8470,-90.7190,63.2,99.0,10.7,-99999.0,'1111122,1111122,1199999999' 
ADCP,ioos:station:wmo:42910:1,2013-09-04T16:47:00Z,27.8470,-90.7190,63.2,98.0,8.1,-99999.0,'1111122,1111122,1199999999' 
ADCP,ioos:station:wmo:42910:1,2013-09-04T17:17:00Z,27.8470,-90.7190,63.2,99.0,8.9,-99999.0,'1111122,1111122,1199999999' 
ADCP,ioos:station:wmo:42910:1,2013-09-04T17:47:00Z,27.8470,-90.7190,63.2,96.0,7.7,-99999.0,'1111122,1111122,1199999999' 
ADCP,ioos:station:wmo:42910:1,2013-09-04T18:17:00Z,27.8470,-90.7190,63.1,99.0,12.8,-99999.0,'1111122,1111122,1199999999' 
ADCP,ioos:station:wmo:42910:1,2013-09-04T18:47:00Z,27.8470,-90.7190,63.1,99.0,13.5,-99999.0,'1111122,1111122,1199999999' 
ADCP,ioos:station:wmo:42910:1,2013-09-04T20:17:00Z,27.8470,-90.7190,63.2,100.0,21.3,-99999.0,'1111122,1111122,1199999999' 
ADCP,ioos:station:wmo:42910:1,2013-09-04T20:47:00Z,27.8470,-90.7190,63.1,99.0,18.1,-99999.0,'1111122,1111122,1199999999' 
ADCP,ioos:station:wmo:42910:1,2013-09-04T21:17:00Z,27.8470,-90.7190,63.2,99.0,19.8,-99999.0,'1111122,1111122,1199999999' 
ADCP,ioos:station:wmo:42910:1,2013-09-04T21:47:00Z,27.8470,-90.7190,63.2,99.0,19.6,-99999.0,'1111122,1111122,1199999999' 
ADCP,ioos:station:wmo:42910:1,2013-09-04T22:17:00Z,27.8470,-90.7190,63.2,99.0,18.5,-99999.0,'1111122,1111122,1199999999' 
ADCP,ioos:station:wmo:42910:1,2013-09-04T22:47:00Z,27.8470,-90.7190,63.2,100.0,19.6,-99999.0,'1111122,1111122,1199999999' 
ADCP,ioos:station:wmo:42910:1,2013-09-04T23:07:00Z,27.8470,-90.7190,63.2,100.0,22.1,-99999.0,'1111122,1111122,1199999999' 
ADCP,ioos:station:wmo:42910:1,2013-09-04T23:47:00Z,27.8470,-90.7190,63.2,100.0,23.8,-99999.0,'1111122,1111122,1199999999' 
ADCP,ioos:station:wmo:42910:1,2013-09-05T00:07:00Z,27.8470,-90.7190,63.2,100.0,26.1,-99999.0,'1111122,1111122,1199999999' 
ADCP,ioos:station:wmo:42910:1,2013-09-05T00:47:00Z,27.8470,-90.7190,63.1,100.0,29.7,-99999.0,'1111122,1111122,1199999999' 
ADCP,ioos:station:wmo:42910:1,2013-09-05T01:17:00Z,27.8470,-90.7190,63.2,100.0,30.1,-99999.0,'1111122,1111122,1199999999' 
ADCP,ioos:station:wmo:42910:1,2013-09-05T01:47:00Z,27.8470,-90.7190,63.2,100.0,28.0,-99999.0,'1111122,1111122,1199999999' 
ADCP,ioos:station:wmo:42910:1,2013-09-05T02:07:00Z,27.8470,-90.7190,63.2,100.0,27.7,-99999.0,'1111122,1111122,1199999999' 
ADCP,ioos:station:wmo:42910:1,2013-09-05T02:47:00Z,27.8470,-90.7190,63.2,99.0,23.5,-99999.0,'1111122,1111122,1199999999' 
ADCP,ioos:station:wmo:42910:1,2013-09-05T03:17:00Z,27.8470,-90.7190,63.1,100.0,23.1,-99999.0,'1111122,1111122,1199999999' 
ADCP,ioos:station:wmo:42910:1,2013-09-05T03:47:00Z,27.8470,-90.7190,63.1,99.0,20.6,-99999.0,'1111122,1111122,1199999999' 
ADCP,ioos:station:wmo:42910:1,2013-09-05T04:27:00Z,27.8470,-90.7190,63.1,99.0,19.3,-99999.0,'1111122,1111122,1199999999' 
ADCP,ioos:station:wmo:42910:1,2013-09-05T04:47:00Z,27.8470,-90.7190,63.1,99.0,18.3,-99999.0,'1111122,1111122,1199999999' 
ADCP,ioos:station:wmo:42910:1,2013-09-05T05:17:00Z,27.8470,-90.7190,63.1,101.0,15.1,-99999.0,'1111122,1111122,1199999999' 
ADCP,ioos:station:wmo:42910:1,2013-09-05T05:47:00Z,27.8470,-90.7190,63.1,99.0,13.3,-99999.0,'1111122,1111122,1199999999' 
ADCP,ioos:station:wmo:42910:1,2013-09-05T06:17:00Z,27.8470,-90.7190,63.1,100.0,14.7,-99999.0,'1111122,1111122,1199999999' 
ADCP,ioos:station:wmo:42910:1,2013-09-05T06:47:00Z,27.8470,-90.7190,63.1,98.0,7.4,-99999.0,'1111122,1111122,1199999999' 
ADCP,ioos:station:wmo:42910:1,2013-09-05T07:17:00Z,27.8470,-90.7190,63.1,96.0,10.2,-99999.0,'1111122,1111122,1199999999' 
ADCP,ioos:station:wmo:42910:1,2013-09-05T07:47:00Z,27.8470,-90.7190,63.1,101.0,11.4,-99999.0,'1111122,1111122,1199999999' 
ADCP,ioos:station:wmo:42910:1,2013-09-05T08:07:00Z,27.8470,-90.7190,63.2,101.0,12.9,-99999.0,'1111122,1111122,1199999999' 
ADCP,ioos:station:wmo:42910:1,2013-09-05T08:47:00Z,27.8470,-90.7190,63.1,99.0,11.9,-99999.0,'1111122,1111122,1199999999' 
ADCP,ioos:station:wmo:42910:1,2013-09-05T09:47:00Z,27.8470,-90.7190,63.1,97.0,7.8,-99999.0,'1111122,1111122,1199999999' 
ADCP,ioos:station:wmo:42910:1,2013-09-05T10:17:00Z,27.8470,-90.7190,63.2,100.0,9.0,-99999.0,'1111122,1111122,1199999999' 
ADCP,ioos:station:wmo:42910:1,2013-09-05T10:27:00Z,27.8470,-90.7190,63.2,101.0,7.1,-99999.0,'1111122,1111122,1199999999' 
ADCP,ioos:station:wmo:42910:1,2013-09-05T11:17:00Z,27.8470,-90.7190,63.2,96.0,7.5,-99999.0,'1111122,1111122,1199999999' 
ADCP,ioos:station:wmo:42910:1,2013-09-05T11:47:00Z,27.8470,-90.7190,63.2,97.0,8.7,-99999.0,'1111122,1111122,1199999999' 
ADCP,ioos:station:wmo:42910:1,2013-09-05T12:17:00Z,27.8470,-90.7190,63.1,97.0,8.3,-99999.0,'1111122,1111122,1199999999' 
ADCP,ioos:station:wmo:42910:1,2013-09-05T12:47:00Z,27.8470,-90.7190,63.1,100.0,12.7,-99999.0,'1111122,1111122,1199999999' 
ADCP,ioos:station:wmo:42910:1,2013-09-05T13:17:00Z,27.8470,-90.7190,63.1,99.0,11.4,-99999.0,'1111122,1111122,1199999999' 
ADCP,ioos:station:wmo:42910:1,2013-09-05T14:17:00Z,27.8470,-90.7190,63.1,99.0,18.9,-99999.0,'1111122,1111122,1199999999' 
ADCP,ioos:station:wmo:42910:1,2013-09-05T14:47:00Z,27.8470,-90.7190,63.1,99.0,18.3,-99999.0,'1111122,1111122,1199999999' 
ADCP,ioos:station:wmo:42910:1,2013-09-05T15:07:00Z,27.8470,-90.7190,63.1,100.0,20.7,-99999.0,'1111122,1111122,1199999999' 
ADCP,ioos:station:wmo:42910:1,2013-09-05T15:47:00Z,27.8470,-90.7190,63.1,99.0,20.1,-99999.0,'1111122,1111122,1199999999' 
ADCP,ioos:station:wmo:42910:1,2013-09-05T16:07:00Z,27.8470,-90.7190,63.1,99.0,21.3,-99999.0,'1111122,1111122,1199999999' 
ADCP,ioos:station:wmo:42910:1,2013-09-05T16:47:00Z,27.8470,-90.7190,63.1,98.0,19.4,-99999.0,'1111122,1111122,1199999999' 
ADCP,ioos:station:wmo:42910:1,2013-09-05T17:47:00Z,27.8470,-90.7190,63.1,99.0,22.8,-99999.0,'1111122,1111122,1199999999' 
ADCP,ioos:station:wmo:42910:1,2013-09-05T18:07:00Z,27.8470,-90.7190,63.1,100.0,21.9,-99999.0,'1111122,1111122,1199999999' 
ADCP,ioos:station:wmo:42910:1,2013-09-05T19:07:00Z,27.8470,-90.7190,63.1,99.0,20.9,-99999.0,'1111122,1111122,1199999999' 
ADCP,ioos:station:wmo:42910:1,2013-09-05T19:47:00Z,27.8470,-90.7190,63.1,99.0,24.1,-99999.0,'1111122,1111122,1199999999' 
ADCP,ioos:station:wmo:42910:1,2013-09-05T20:47:00Z,27.8470,-90.7190,63.2,100.0,23.1,-99999.0,'1111122,1111122,1199999999' 
ADCP,ioos:station:wmo:42910:1,2013-09-05T21:07:00Z,27.8470,-90.7190,63.2,100.0,26.7,-99999.0,'1111122,1111122,1199999999' 
ADCP,ioos:station:wmo:42910:1,2013-09-05T21:47:00Z,27.8470,-90.7190,63.2,99.0,25.4,-99999.0,'1111122,1111122,1199999999' 
ADCP,ioos:station:wmo:42910:1,2013-09-05T22:27:00Z,27.8470,-90.7190,63.2,98.0,27.2,-99999.0,'1111122,1111122,1199999999' 
ADCP,ioos:station:wmo:42910:1,2013-09-05T22:47:00Z,27.8470,-90.7190,63.2,99.0,26.1,-99999.0,'1111122,1111122,1199999999' 
ADCP,ioos:station:wmo:42910:1,2013-09-05T23:07:00Z,27.8470,-90.7190,63.2,100.0,26.5,-99999.0,'1111122,1111122,1199999999' 
ADCP,ioos:station:wmo:42910:1,2013-09-06T00:07:00Z,27.8470,-90.7190,63.2,99.0,23.3,-99999.0,'1111122,1111122,1199999999' 
ADCP,ioos:station:wmo:42910:1,2013-09-06T01:47:00Z,27.8470,-90.7190,63.2,100.0,24.8,-99999.0,'1111122,1111122,1199999999' 
ADCP,ioos:station:wmo:42910:1,2013-09-06T02:17:00Z,27.8470,-90.7190,63.1,100.0,24.7,-99999.0,'1111122,1111122,1199999999' 
ADCP,ioos:station:wmo:42910:1,2013-09-06T02:47:00Z,27.8470,-90.7190,63.2,99.0,22.8,-99999.0,'1111122,1111122,1199999999' 
ADCP,ioos:station:wmo:42910:1,2013-09-06T03:17:00Z,27.8470,-90.7190,63.2,98.0,19.4,-99999.0,'1111122,1111122,1199999999' 
ADCP,ioos:station:wmo:42910:1,2013-09-06T03:47:00Z,27.8470,-90.7190,63.2,100.0,16.1,-99999.0,'1111122,1111122,1199999999' 
ADCP,ioos:station:wmo:42910:1,2013-09-06T04:17:00Z,27.8470,-90.7190,63.2,99.0,15.4,-99999.0,'1111122,1111122,1199999999' 
ADCP,ioos:station:wmo:42910:1,2013-09-06T05:17:00Z,27.8470,-90.7190,63.2,99.0,17.5,-99999.0,'1111122,1111122,1199999999' 
ADCP,ioos:station:wmo:42910:1,2013-09-06T05:47:00Z,27.8470,-90.7190,63.2,99.0,14.8,-99999.0,'1111122,1111122,1199999999' 
ADCP,ioos:station:wmo:42910:1,2013-09-06T06:47:00Z,27.8470,-90.7190,63.2,99.0,10.0,-99999.0,'1111122,1111122,1199999999' 
ADCP,ioos:station:wmo:42910:1,2013-09-06T07:07:00Z,27.8470,-90.7190,63.2,98.0,7.6,-99999.0,'1111122,1111122,1199999999' 
ADCP,ioos:station:wmo:42910:1,2013-09-06T07:47:00Z,27.8470,-90.7190,63.2,100.0,10.6,-99999.0,'1111122,1111122,1199999999' 
ADCP,ioos:station:wmo:42910:1,2013-09-06T08:27:00Z,27.8470,-90.7190,63.2,97.0,10.2,-99999.0,'1111122,1111122,1199999999' 
ADCP,ioos:station:wmo:42910:1,2013-09-06T08:47:00Z,27.8470,-90.7190,63.2,100.0,7.0,-99999.0,'1111122,1111122,1199999999' 
ADCP,ioos:station:wmo:42910:1,2013-09-06T09:07:00Z,27.8470,-90.7190,63.2,100.0,8.9,-99999.0,'1111122,1111122,1199999999' 
ADCP,ioos:station:wmo:42910:1,2013-09-06T09:47:00Z,27.8470,-90.7190,63.2,99.0,13.6,-99999.0,'1111122,1111122,1199999999' 
ADCP,ioos:station:wmo:42910:1,2013-09-06T10:07:00Z,27.8470,-90.7190,63.2,99.0,14.2,-99999.0,'1111122,1111122,1199999999' 
ADCP,ioos:station:wmo:42910:1,2013-09-06T10:47:00Z,27.8470,-90.7190,63.2,100.0,12.0,-99999.0,'1111122,1111122,1199999999' 
ADCP,ioos:station:wmo:42910:1,2013-09-06T11:47:00Z,27.8470,-90.7190,63.2,95.0,11.3,-99999.0,'1111122,1111122,1199999999' 
ADCP,ioos:station:wmo:42910:1,2013-09-06T12:17:00Z,27.8470,-90.7190,63.2,99.0,12.5,-99999.0,'1111122,1111122,1199999999' 
ADCP,ioos:station:wmo:42910:1,2013-09-06T12:47:00Z,27.8470,-90.7190,63.2,100.0,15.2,-99999.0,'1111122,1111122,1199999999' 
ADCP,ioos:station:wmo:42910:1,2013-09-06T13:17:00Z,27.8470,-90.7190,63.1,100.0,14.9,-99999.0,'1111122,1111122,1199999999' 
ADCP,ioos:station:wmo:42910:1,2013-09-06T13:47:00Z,27.8470,-90.7190,63.2,100.0,18.7,-99999.0,'1111122,1111122,1199999999' 
ADCP,ioos:station:wmo:42910:1,2013-09-06T14:17:00Z,27.8470,-90.7190,63.2,99.0,21.9,-99999.0,'1111122,1111122,1199999999' 
ADCP,ioos:station:wmo:42910:1,2013-09-06T15:17:00Z,27.8470,-90.7190,63.2,98.0,23.6,-99999.0,'1111122,1111122,1199999999' 
ADCP,ioos:station:wmo:42910:1,2013-09-06T15:47:00Z,27.8470,-90.7190,63.2,99.0,24.7,-99999.0,'1111122,1111122,1199999999' 
ADCP,ioos:station:wmo:42910:1,2013-09-06T16:47:00Z,27.8470,-90.7190,63.2,98.0,23.0,-99999.0,'1111122,1111122,1199999999' 
ADCP,ioos:station:wmo:42910:1,2013-09-06T17:17:00Z,27.8470,-90.7190,63.2,99.0,21.0,-99999.0,'1111122,1111122,1199999999' 
ADCP,ioos:station:wmo:42910:1,2013-09-06T17:47:00Z,27.8470,-90.7190,63.2,100.0,26.0,-99999.0,'1111122,1111122,1199999999' 
ADCP,ioos:station:wmo:42910:1,2013-09-06T18:17:00Z,27.8470,-90.7190,63.2,100.0,23.8,-99999.0,'1111122,1111122,1199999999' 
ADCP,ioos:station:wmo:42910:1,2013-09-06T20:17:00Z,27.8470,-90.7190,63.2,99.0,21.8,-99999.0,'1111122,1111122,1199999999' 
ADCP,ioos:station:wmo:42910:1,2013-09-06T20:47:00Z,27.8470,-90.7190,63.2,99.0,20.1,-99999.0,'1111122,1111122,1199999999' 
ADCP,ioos:station:wmo:42910:1,2013-09-06T21:47:00Z,27.8470,-90.7190,63.2,99.0,18.9,-99999.0,'1111122,1111122,1199999999' 
ADCP,ioos:station:wmo:42910:1,2013-09-06T22:17:00Z,27.8470,-90.7190,63.2,100.0,19.9,-99999.0,'1111122,1111122,1199999999' 
ADCP,ioos:station:wmo:42910:1,2013-09-06T22:47:00Z,27.8470,-90.7190,63.2,100.0,22.9,-99999.0,'1111122,1111122,1199999999' 
ADCP,ioos:station:wmo:42910:1,2013-09-06T23:17:00Z,27.8470,-90.7190,63.2,101.0,21.8,-99999.0,'1111122,1111122,1199999999' 
ADCP,ioos:station:wmo:42910:1,2013-09-06T23:47:00Z,27.8470,-90.7190,63.2,101.0,23.2,-99999.0,'1111122,1111122,1199999999' 
ADCP,ioos:station:wmo:42910:1,2013-09-07T00:27:00Z,27.8470,-90.7190,63.2,99.0,21.3,-99999.0,'1111122,1111122,1199999999' 
ADCP,ioos:station:wmo:42910:1,2013-09-07T01:07:00Z,27.8470,-90.7190,63.2,99.0,20.7,-99999.0,'1111122,1111122,1199999999' 
ADCP,ioos:station:wmo:42910:1,2013-09-07T01:47:00Z,27.8470,-90.7190,63.2,100.0,24.2,-99999.0,'1111122,1111122,1199999999' 
ADCP,ioos:station:wmo:42910:1,2013-09-07T02:47:00Z,27.8470,-90.7190,63.2,99.0,28.7,-99999.0,'1111122,1111122,1199999999' 
ADCP,ioos:station:wmo:42910:1,2013-09-07T03:17:00Z,27.8470,-90.7190,63.1,100.0,26.0,-99999.0,'1111122,1111122,1199999999' 
ADCP,ioos:station:wmo:42910:1,2013-09-07T03:47:00Z,27.8470,-90.7190,63.1,100.0,25.6,-99999.0,'1111122,1111122,1199999999' 
ADCP,ioos:station:wmo:42910:1,2013-09-07T04:17:00Z,27.8470,-90.7190,63.1,99.0,20.0,-99999.0,'1111122,1111122,1199999999' 
ADCP,ioos:station:wmo:42910:1,2013-09-07T04:47:00Z,27.8470,-90.7190,63.1,99.0,21.2,-99999.0,'1111122,1111122,1199999999' 
ADCP,ioos:station:wmo:42910:1,2013-09-07T06:17:00Z,27.8470,-90.7190,63.2,99.0,22.7,-99999.0,'1111122,1111122,1199999999' 
ADCP,ioos:station:wmo:42910:1,2013-09-07T06:47:00Z,27.8470,-90.7190,63.2,98.0,18.4,-99999.0,'1111122,1111122,1199999999' 
ADCP,ioos:station:wmo:42910:1,2013-09-07T07:47:00Z,27.8470,-90.7190,63.2,99.0,13.4,-99999.0,'1111122,1111122,1199999999' 
ADCP,ioos:station:wmo:42910:1,2013-09-07T08:17:00Z,27.8470,-90.7190,63.2,98.0,16.1,-99999.0,'1111122,1111122,1199999999' 
ADCP,ioos:station:wmo:42910:1,2013-09-07T08:47:00Z,27.8470,-90.7190,63.2,98.0,19.3,-99999.0,'1111122,1111122,1199999999' 
ADCP,ioos:station:wmo:42910:1,2013-09-07T09:07:00Z,27.8470,-90.7190,63.2,100.0,19.3,-99999.0,'1111122,1111122,1199999999' 
ADCP,ioos:station:wmo:42910:1,2013-09-07T09:47:00Z,27.8470,-90.7190,63.2,99.0,21.4,-99999.0,'1111122,1111122,1199999999' 
ADCP,ioos:station:wmo:42910:1,2013-09-07T10:07:00Z,27.8470,-90.7190,63.2,100.0,21.8,-99999.0,'1111122,1111122,1199999999' 
ADCP,ioos:station:wmo:42910:1,2013-09-07T11:07:00Z,27.8470,-90.7190,63.2,98.0,21.9,-99999.0,'1111122,1111122,1199999999' 
ADCP,ioos:station:wmo:42910:1,2013-09-07T11:47:00Z,27.8470,-90.7190,63.2,99.0,24.8,-99999.0,'1111122,1111122,1199999999' 
ADCP,ioos:station:wmo:42910:1,2013-09-07T12:47:00Z,27.8470,-90.7190,63.2,98.0,26.1,-99999.0,'1111122,1111122,1199999999' 
ADCP,ioos:station:wmo:42910:1,2013-09-07T12:57:00Z,27.8470,-90.7190,63.2,100.0,28.0,-99999.0,'1111122,1111122,1199999999' 
ADCP,ioos:station:wmo:42910:1,2013-09-07T13:47:00Z,27.8470,-90.7190,63.2,99.0,29.5,-99999.0,'1111122,1111122,1199999999' 
ADCP,ioos:station:wmo:42910:1,2013-09-07T14:07:00Z,27.8470,-90.7190,63.2,100.0,27.6,-99999.0,'1111122,1111122,1199999999' 
ADCP,ioos:station:wmo:42910:1,2013-09-07T14:47:00Z,27.8470,-90.7190,63.2,99.0,27.3,-99999.0,'1111122,1111122,1199999999' 
ADCP,ioos:station:wmo:42910:1,2013-09-07T15:07:00Z,27.8470,-90.7190,63.2,100.0,27.8,-99999.0,'1111122,1111122,1199999999' 
ADCP,ioos:station:wmo:42910:1,2013-09-07T15:57:00Z,27.8470,-90.7190,63.2,99.0,25.4,-99999.0,'1111122,1111122,1199999999' 
ADCP,ioos:station:wmo:42910:1,2013-09-07T16:47:00Z,27.8470,-90.7190,63.2,100.0,26.3,-99999.0,'1111122,1111122,1199999999' 
ADCP,ioos:station:wmo:42910:1,2013-09-07T17:47:00Z,27.8470,-90.7190,63.2,99.0,22.1,-99999.0,'1111122,1111122,1199999999' 
ADCP,ioos:station:wmo:42910:1,2013-09-07T18:17:00Z,27.8470,-90.7190,63.2,98.0,19.0,-99999.0,'1111122,1111122,1199999999' 
ADCP,ioos:station:wmo:42910:1,2013-09-07T18:47:00Z,27.8470,-90.7190,63.2,100.0,21.8,-99999.0,'1111122,1111122,1199999999' 
ADCP,ioos:station:wmo:42910:1,2013-09-07T19:17:00Z,27.8470,-90.7190,63.2,98.0,21.5,-99999.0,'1111122,1111122,1199999999' 
ADCP,ioos:station:wmo:42910:1,2013-09-07T19:47:00Z,27.8470,-90.7190,63.2,100.0,23.9,-99999.0,'1111122,1111122,1199999999' 
ADCP,ioos:station:wmo:42910:1,2013-09-07T20:17:00Z,27.8470,-90.7190,63.2,101.0,25.4,-99999.0,'1111122,1111122,1199999999' 
ADCP,ioos:station:wmo:42910:1,2013-09-07T21:07:00Z,27.8470,-90.7190,63.1,99.0,27.3,-99999.0,'1111122,1111122,1199999999' 
ADCP,ioos:station:wmo:42910:1,2013-09-07T21:47:00Z,27.8470,-90.7190,63.2,100.0,23.6,-99999.0,'1111122,1111122,1199999999' 
ADCP,ioos:station:wmo:42910:1,2013-09-07T22:47:00Z,27.8470,-90.7190,63.2,99.0,20.7,-99999.0,'1111122,1111122,1199999999' 
ADCP,ioos:station:wmo:42910:1,2013-09-07T23:17:00Z,27.8470,-90.7190,63.2,100.0,18.5,-99999.0,'1111122,1111122,1199999999' 
ADCP,ioos:station:wmo:42910:1,2013-09-07T23:47:00Z,27.8470,-90.7190,63.2,100.0,18.5,-99999.0,'1111122,1111122,1199999999' 
ADCP,ioos:station:wmo:42910:1,2013-09-08T00:27:00Z,27.8470,-90.7190,63.2,99.0,21.9,-99999.0,'1111122,1111122,1199999999' 
ADCP,ioos:station:wmo:42910:1,2013-09-08T00:47:00Z,27.8470,-90.7190,63.2,99.0,21.0,-99999.0,'1111122,1111122,1199999999' 
ADCP,ioos:station:wmo:42910:1,2013-09-08T01:17:00Z,27.8470,-90.7190,63.2,99.0,21.6,-99999.0,'1111122,1111122,1199999999' 
ADCP,ioos:station:wmo:42910:1,2013-09-08T02:17:00Z,27.8470,-90.7190,63.2,100.0,23.5,-99999.0,'1111122,1111122,1199999999' 
ADCP,ioos:station:wmo:42910:1,2013-09-08T02:47:00Z,27.8470,-90.7190,63.2,99.0,22.4,-99999.0,'1111122,1111122,1199999999' 
ADCP,ioos:station:wmo:42910:1,2013-09-08T03:47:00Z,27.8470,-90.7190,63.2,100.0,22.9,-99999.0,'1111122,1111122,1199999999' 
ADCP,ioos:station:wmo:42910:1,2013-09-08T04:17:00Z,27.8470,-90.7190,63.2,99.0,20.3,-99999.0,'1111122,1111122,1199999999' 
ADCP,ioos:station:wmo:42910:1,2013-09-08T04:47:00Z,27.8470,-90.7190,63.2,99.0,24.5,-99999.0,'1111122,1111122,1199999999' 
ADCP,ioos:station:wmo:42910:1,2013-09-08T05:17:00Z,27.8470,-90.7190,63.2,100.0,21.1,-99999.0,'1111122,1111122,1199999999' 
ADCP,ioos:station:wmo:42910:1,2013-09-08T05:47:00Z,27.8470,-90.7190,63.2,99.0,20.0,-99999.0,'1111122,1111122,1199999999' 
ADCP,ioos:station:wmo:42910:1,2013-09-08T06:17:00Z,27.8470,-90.7190,63.1,98.0,19.6,-99999.0,'1111122,1111122,1199999999' 
ADCP,ioos:station:wmo:42910:1,2013-09-08T07:17:00Z,27.8470,-90.7190,63.2,98.0,12.9,-99999.0,'1111122,1111122,1199999999' 
ADCP,ioos:station:wmo:42910:1,2013-09-08T07:47:00Z,27.8470,-90.7190,63.2,97.0,3.3,-99999.0,'1111122,1111122,1199999999' 
ADCP,ioos:station:wmo:42910:1,2013-09-08T08:17:00Z,27.8470,-90.7190,63.2,100.0,12.2,-99999.0,'1111122,1111122,1199999999' 
ADCP,ioos:station:wmo:42910:1,2013-09-08T08:47:00Z,27.8470,-90.7190,63.2,98.0,15.0,-99999.0,'1111122,1111122,1199999999' 
ADCP,ioos:station:wmo:42910:1,2013-09-08T09:17:00Z,27.8470,-90.7190,63.2,99.0,15.4,-99999.0,'1111122,1111122,1199999999' 
ADCP,ioos:station:wmo:42910:1,2013-09-08T09:47:00Z,27.8470,-90.7190,63.2,99.0,15.5,-99999.0,'1111122,1111122,1199999999' 
ADCP,ioos:station:wmo:42910:1,2013-09-08T10:17:00Z,27.8470,-90.7190,63.2,100.0,16.7,-99999.0,'1111122,1111122,1199999999' 
ADCP,ioos:station:wmo:42910:1,2013-09-08T10:47:00Z,27.8470,-90.7190,63.2,99.0,16.1,-99999.0,'1111122,1111122,1199999999' 
ADCP,ioos:station:wmo:42910:1,2013-09-08T12:17:00Z,27.8470,-90.7190,63.1,99.0,13.8,-99999.0,'1111122,1111122,1199999999' 
ADCP,ioos:station:wmo:42910:1,2013-09-08T12:47:00Z,27.8470,-90.7190,63.2,100.0,18.2,-99999.0,'1111122,1111122,1199999999' 
ADCP,ioos:station:wmo:42910:1,2013-09-08T13:47:00Z,27.8470,-90.7190,63.2,100.0,22.4,-99999.0,'1111122,1111122,1199999999' 
ADCP,ioos:station:wmo:42910:1,2013-09-08T14:17:00Z,27.8470,-90.7190,63.1,100.0,18.0,-99999.0,'1111122,1111122,1199999999' 